Total_Precipitation_Accumulation
0.06 0.09 0.12 0.15 0.17 0.17 0.19 0.23 0.29 0.32 0.33 0.42 0.52 0.60 0.68 0.86 1.07 1.13 1.19 1.31 1.33 1.35 1.47 1.56 1.56 1.44 1.29 1.25 1.36 1.56 1.37 0.97 0.70 0.59 0.41 0.25 0.14 0.10 0.07 0.05 0.03 0.02 0.02
0.04 0.05 0.07 0.10 0.11 0.10 0.12 0.17 0.26 0.35 0.41 0.47 0.61 0.75 0.97 1.09 1.22 1.37 1.36 1.38 1.43 1.45 1.51 1.70 1.78 1.67 1.59 1.63 1.56 1.64 1.70 1.41 1.05 0.94 0.94 0.69 0.46 0.22 0.10 0.08 0.05 0.03 0.05
0.04 0.04 0.04 0.06 0.09 0.08 0.10 0.17 0.31 0.50 0.70 0.81 1.04 1.32 1.56 1.63 1.55 1.54 1.58 1.56 1.60 1.63 1.60 1.70 1.88 1.81 1.73 1.70 1.80 1.93 2.07 1.92 1.59 1.29 1.24 0.98 0.77 0.63 0.27 0.13 0.10 0.08 0.07
0.09 0.07 0.08 0.08 0.09 0.12 0.20 0.36 0.60 0.90 1.16 1.31 1.51 1.71 1.82 1.85 1.78 1.79 1.77 1.74 1.66 1.57 1.54 1.66 1.85 1.97 2.02 2.02 2.05 1.97 2.14 2.22 1.97 1.81 1.43 1.11 0.89 0.88 0.69 0.38 0.20 0.15 0.11
0.18 0.19 0.21 0.22 0.28 0.39 0.57 0.86 1.12 1.37 1.52 1.58 1.67 1.87 2.03 2.17 2.19 2.07 1.92 1.80 1.75 1.66 1.57 1.60 1.67 1.71 1.76 1.86 1.97 1.97 2.09 2.13 2.15 2.07 1.87 1.59 1.32 0.89 0.78 0.74 0.52 0.32 0.17
0.29 0.35 0.45 0.55 0.70 0.82 1.00 1.20 1.35 1.50 1.50 1.51 1.57 1.71 1.89 2.05 2.07 2.08 2.04 1.91 1.75 1.63 1.55 1.49 1.57 1.60 1.59 1.69 1.78 1.85 1.99 2.06 2.11 2.09 1.91 1.72 1.58 1.34 1.07 0.86 0.74 0.64 0.40
0.41 0.57 0.72 0.86 0.98 1.09 1.19 1.22 1.22 1.27 1.30 1.32 1.35 1.42 1.50 1.53 1.59 1.69 1.61 1.47 1.34 1.29 1.28 1.21 1.25 1.36 1.41 1.57 1.62 1.55 1.58 1.69 1.80 1.90 1.90 1.80 1.66 1.57 1.42 1.25 1.04 0.83 0.55
0.68 0.77 0.88 0.97 1.01 1.14 1.20 1.16 1.13 1.12 1.06 1.00 1.05 1.06 1.11 1.17 1.20 1.22 1.17 1.09 1.03 0.99 0.96 0.96 0.95 1.00 1.07 1.27 1.44 1.41 1.42 1.46 1.51 1.58 1.73 1.76 1.71 1.67 1.45 1.28 1.22 1.02 0.78
0.94 1.08 1.08 0.99 0.90 0.94 1.02 1.01 0.97 0.92 0.84 0.78 0.82 0.85 0.91 0.94 0.93 0.91 0.86 0.84 0.78 0.77 0.75 0.77 0.84 0.88 0.87 0.95 1.05 1.22 1.29 1.31 1.36 1.37 1.46 1.48 1.52 1.50 1.37 1.30 1.19 1.04 0.85
1.00 1.24 1.38 1.27 1.00 0.80 0.82 0.79 0.76 0.80 0.79 0.75 0.77 0.77 0.70 0.64 0.66 0.69 0.63 0.62 0.66 0.69 0.69 0.66 0.66 0.70 0.70 0.79 0.87 0.92 1.02 1.07 1.19 1.33 1.41 1.40 1.39 1.39 1.33 1.28 1.25 1.11 0.88
1.17 1.31 1.36 1.23 1.05 0.78 0.69 0.68 0.66 0.70 0.76 0.70 0.72 0.71 0.61 0.49 0.47 0.47 0.45 0.44 0.47 0.53 0.54 0.56 0.61 0.59 0.59 0.60 0.60 0.64 0.70 0.76 0.84 0.86 0.93 1.11 1.26 1.28 1.28 1.30 1.29 1.24 1.07
0.83 0.85 0.96 0.97 0.91 0.78 0.71 0.75 0.80 0.79 0.71 0.65 0.62 0.58 0.51 0.44 0.43 0.41 0.38 0.39 0.44 0.46 0.46 0.51 0.54 0.54 0.58 0.61 0.59 0.56 0.56 0.62 0.71 0.72 0.70 0.78 0.95 1.05 1.13 1.20 1.22 1.24 1.20
0.60 0.53 0.64 0.78 0.73 0.66 0.70 0.77 0.91 0.91 0.82 0.70 0.60 0.56 0.52 0.49 0.47 0.42 0.41 0.41 0.47 0.57 0.59 0.59 0.62 0.59 0.61 0.60 0.60 0.60 0.58 0.58 0.64 0.68 0.69 0.72 0.76 0.87 0.93 1.04 1.13 1.18 1.25
0.47 0.41 0.40 0.42 0.41 0.44 0.47 0.59 0.84 1.03 1.01 0.90 0.77 0.68 0.61 0.54 0.48 0.43 0.43 0.41 0.45 0.51 0.53 0.60 0.68 0.75 0.80 0.79 0.74 0.70 0.65 0.60 0.61 0.67 0.72 0.71 0.70 0.77 0.96 1.08 1.13 1.14 1.16
0.28 0.24 0.20 0.20 0.22 0.27 0.34 0.45 0.72 0.91 0.93 0.92 0.80 0.66 0.55 0.45 0.43 0.46 0.49 0.46 0.41 0.43 0.44 0.52 0.59 0.68 0.77 0.83 0.82 0.67 0.56 0.56 0.60 0.59 0.59 0.66 0.72 0.73 0.83 0.96 1.14 1.12 1.15
0.18 0.18 0.16 0.14 0.11 0.11 0.16 0.27 0.46 0.62 0.68 0.74 0.70 0.54 0.48 0.43 0.39 0.42 0.48 0.49 0.39 0.37 0.39 0.42 0.40 0.41 0.47 0.62 0.61 0.49 0.41 0.45 0.53 0.58 0.61 0.61 0.61 0.60 0.64 0.66 0.85 0.99 1.07
0.22 0.22 0.22 0.19 0.17 0.14 0.14 0.17 0.24 0.33 0.40 0.44 0.45 0.36 0.34 0.41 0.42 0.45 0.44 0.38 0.31 0.33 0.35 0.30 0.26 0.26 0.30 0.35 0.33 0.38 0.42 0.43 0.45 0.52 0.62 0.68 0.65 0.66 0.73 0.68 0.70 0.75 0.79
0.28 0.24 0.20 0.18 0.15 0.12 0.12 0.13 0.15 0.18 0.20 0.20 0.17 0.14 0.21 0.30 0.32 0.30 0.28 0.23 0.22 0.28 0.35 0.30 0.27 0.29 0.26 0.29 0.33 0.36 0.39 0.49 0.53 0.54 0.55 0.66 0.70 0.73 0.85 0.84 0.88 0.79 0.70
0.12 0.08 0.05 0.04 0.03 0.03 0.03 0.03 0.02 0.02 0.02 0.02 0.02 0.04 0.05 0.06 0.06 0.06 0.07 0.11 0.15 0.19 0.18 0.22 0.36 0.36 0.32 0.39 0.37 0.31 0.36 0.46 0.51 0.50 0.55 0.64 0.73 0.87 0.96 1.00 0.96 0.84 0.72
0.01 0.00 0.00 0.00 0.00 0.00 0.00 0.00 0.00 0.00 0.00 0.00 0.00 0.00 0.01 0.01 0.01 0.01 0.01 0.03 0.06 0.09 0.10 0.14 0.26 0.33 0.34 0.33 0.23 0.24 0.33 0.43 0.51 0.53 0.55 0.76 0.77 0.86 0.89 0.92 0.97 0.93 0.75
0.00 0.00 0.00 0.00 0.00 0.00 0.00 0.00 0.00 0.00 0.00 0.00 0.00 0.00 0.00 0.01 0.01 0.02 0.01 0.00 0.01 0.02 0.05 0.09 0.12 0.14 0.14 0.13 0.13 0.19 0.25 0.30 0.42 0.49 0.52 0.50 0.64 0.66 0.75 0.81 0.82 0.95 0.80
0.00 0.00 0.00 0.00 0.00 0.00 0.00 0.00 0.00 0.00 0.00 0.00 0.00 0.00 0.01 0.01 0.01 0.02 0.01 0.01 0.00 0.01 0.02 0.05 0.08 0.07 0.06 0.05 0.06 0.08 0.12 0.18 0.25 0.33 0.44 0.44 0.50 0.55 0.62 0.62 0.74 0.84 0.77
0.00 0.00 0.00 0.00 0.00 0.00 0.00 0.00 0.00 0.00 0.00 0.00 0.01 0.00 0.00 0.01 0.00 0.01 0.01 0.01 0.01 0.01 0.02 0.03 0.06 0.06 0.08 0.06 0.06 0.06 0.08 0.13 0.17 0.20 0.35 0.41 0.46 0.45 0.46 0.55 0.67 0.68 0.70
0.00 0.00 0.00 0.00 0.00 0.00 0.00 0.00 0.00 0.00 0.00 0.00 0.00 0.00 0.00 0.01 0.00 0.01 0.00 0.01 0.01 0.01 0.01 0.02 0.04 0.08 0.10 0.06 0.05 0.07 0.10 0.12 0.14 0.17 0.30 0.42 0.48 0.46 0.45 0.49 0.58 0.60 0.67
0.00 0.00 0.00 0.00 0.00 0.00 0.00 0.00 0.00 0.00 0.00 0.00 0.00 0.00 0.00 0.01 0.01 0.01 0.00 0.00 0.00 0.01 0.01 0.01 0.03 0.03 0.04 0.03 0.04 0.07 0.10 0.12 0.13 0.23 0.39 0.53 0.55 0.53 0.48 0.48 0.54 0.52 0.48
0.00 0.00 0.00 0.00 0.00 0.00 0.00 0.00 0.00 0.00 0.00 0.00 0.00 0.00 0.00 0.01 0.01 0.01 0.01 0.00 0.01 0.01 0.01 0.01 0.02 0.02 0.02 0.03 0.06 0.11 0.14 0.16 0.23 0.39 0.58 0.68 0.75 0.72 0.63 0.56 0.54 0.49 0.45